CZ-6A DEB

Satellite information

Favourite Embed

Satellite Type and Status

DEBRISIN ORBIT

Key statistics

Satellite CZ-6A DEB at a glance.

Uptime

1082

Days in orbit

Revolutions

≈ 14.1

Per day

Orbit

SSO

Sun Synchronous Orbit

Inclination

98.8

Latest

Satellite identification and parameters

Extended collection of information and parameters for CZ-6A DEB.

Object identification

Identified? True

Debris? True

Object name: CZ-6A DEB

International designator: 2022-151MK

Object number (NORAD): 54583

Object ID (CCSDS): 54583

Country: PEOPLES REPUBLIC OF CHINA (PRC)

Current information (Y/N): Y

RCS size: SMALL

Orbital parameters

Period: 102.342 minutes

Inclination: 98.8461 deg

SMA: 7247.618 km

Apoapsis: 933.537 km

Periapsis: 805.43 km

RAAN: 288.4451 deg

Eccentricy: 0.00883785

Argument of periapsis: 318.6159 deg

Mean anomaly: 40.8337 deg

Mean motion: 14.07050804 rev/day

Mean motion (dot): 0.00003851 rev/day2

B* drag term: 0.0022488613 1/REarth

Two-line elements (TLE)

Creation date: Oct. 28, 2025, 2:18 a.m.

Reference frame: TEME

Reference center: EARTH

Epoch: Oct. 27, 2025, 10:43 p.m. UTC

TLE line 0: 0 CZ-6A DEB

TLE line 1: 1 54583U 22151MK 25300.94714275 .00003851 00000-0 22489-2 0 9999

TLE line 2: 2 54583 98.8461 288.4451 0088379 318.6159 40.8337 14.07050804150856

Live tracking on map

Real-time ground track for satellite CZ-6A DEB.

In-orbit conjunctions

A list of the most updated potential collisions computed for object CZ-6A DEB.

Target Orbit TCA Probability of collision Miss distance Type
ARIANE 1 DEB SSO 2024-11-28 02:07:03 0.0001808213 61.0 (m) DEBRIS
COSMOS 1275 DEB LEO 2024-11-13 01:52:44 0.0001549225 159.0 (m) DEBRIS
THOR ABLESTAR DEB LEO 2024-05-27 20:36:37 0.0001781582 93.0 (m) DEBRIS

Associated space launch

Chinese satellite reported for atmospheric/ocean/environmental/spatial parameter research purposes, details TBD.

CZ-6A DEB was lifted into orbit during the mission ‘Long March 6A | Yunhai 3’, on board a Long March 6A space rocket.

The launch took place on Nov. 11, 2022, 10:52 p.m. from Launch Complex 9A.

For more information about the launch, click the button.

Launch to space Long March 6A | Yunhai 3
Long March 6A | Yunhai 3

Agency: N/A

Status: Launch Successful

Launch date: Nov. 11, 2022, 10:52 p.m. UTC

Rocket: Long March 6A

Launch pad: Launch Complex 9A

Location: Taiyuan Satellite Launch Center, People's Republic of China

...

Latest news about this satellite

There are no fresh news available about this satellite. Check back as we update our databases every day.


Newsletter sign-up

Weekly statistics, charts and insights to help you stay on top of the space industry.